owner,sensor,date,latitude,longitude,vertical_datum,wind_speed,wind_to_direction,wind_speed_of_gust,qcFlag 
ADCP,ioos:station:wmo:42376:1,2012-08-01T00:00:00Z,29.1080,-87.9440,1.0,4.8,247.0,99.0,'11111222,11111222,11144222' 
ADCP,ioos:station:wmo:42376:1,2012-08-01T00:20:00Z,29.1080,-87.9440,1.0,4.8,247.0,99.0,'11111222,11111222,11144222' 
ADCP,ioos:station:wmo:42376:1,2012-08-01T00:40:00Z,29.1080,-87.9440,1.0,5.0,260.0,99.0,'11111222,11111222,11144222' 
ADCP,ioos:station:wmo:42376:1,2012-08-01T01:00:00Z,29.1080,-87.9440,1.0,7.5,259.0,99.0,'11111222,11111222,11144222' 
ADCP,ioos:station:wmo:42376:1,2012-08-01T01:20:00Z,29.1080,-87.9440,1.0,7.5,259.0,99.0,'11111222,11111222,11144222' 
ADCP,ioos:station:wmo:42376:1,2012-08-01T01:40:00Z,29.1080,-87.9440,1.0,8.3,264.0,99.0,'11111222,11111222,11144222' 
ADCP,ioos:station:wmo:42376:1,2012-08-01T02:00:00Z,29.1080,-87.9440,1.0,9.0,266.0,99.0,'11111222,11111222,11144222' 
ADCP,ioos:station:wmo:42376:1,2012-08-01T02:20:00Z,29.1080,-87.9440,1.0,9.0,266.0,99.0,'11111222,11111222,11144222' 
ADCP,ioos:station:wmo:42376:1,2012-08-01T02:40:00Z,29.1080,-87.9440,1.0,9.4,269.0,99.0,'11111222,11111222,11144222' 
ADCP,ioos:station:wmo:42376:1,2012-08-01T03:00:00Z,29.1080,-87.9440,1.0,9.3,273.0,99.0,'11111222,11111222,11144222' 
ADCP,ioos:station:wmo:42376:1,2012-08-01T03:20:00Z,29.1080,-87.9440,1.0,9.3,273.0,99.0,'11111222,11111222,11144222' 
ADCP,ioos:station:wmo:42376:1,2012-08-01T03:40:00Z,29.1080,-87.9440,1.0,8.9,275.0,99.0,'11111222,11111222,11144222' 
ADCP,ioos:station:wmo:42376:1,2012-08-01T04:00:00Z,29.1080,-87.9440,1.0,9.1,274.0,99.0,'11111222,11111222,11144222' 
ADCP,ioos:station:wmo:42376:1,2012-08-01T04:20:00Z,29.1080,-87.9440,1.0,9.1,274.0,99.0,'11111222,11111222,11144222' 
ADCP,ioos:station:wmo:42376:1,2012-08-01T04:40:00Z,29.1080,-87.9440,1.0,9.6,277.0,99.0,'11111222,11111222,11144222' 
ADCP,ioos:station:wmo:42376:1,2012-08-01T05:00:00Z,29.1080,-87.9440,1.0,8.5,274.0,99.0,'11111222,11111222,11144222' 
ADCP,ioos:station:wmo:42376:1,2012-08-01T05:20:00Z,29.1080,-87.9440,1.0,8.5,274.0,99.0,'11111222,11111222,11144222' 
ADCP,ioos:station:wmo:42376:1,2012-08-01T05:40:00Z,29.1080,-87.9440,1.0,8.1,273.0,99.0,'11111222,11111222,11144222' 
ADCP,ioos:station:wmo:42376:1,2012-08-01T06:00:00Z,29.1080,-87.9440,1.0,8.3,275.0,99.0,'11111222,11111222,11144222' 
ADCP,ioos:station:wmo:42376:1,2012-08-01T06:20:00Z,29.1080,-87.9440,1.0,8.3,275.0,99.0,'11111222,11111222,11144222' 
ADCP,ioos:station:wmo:42376:1,2012-08-01T06:40:00Z,29.1080,-87.9440,1.0,6.7,281.0,99.0,'11111222,11111222,11144222' 
ADCP,ioos:station:wmo:42376:1,2012-08-01T07:00:00Z,29.1080,-87.9440,1.0,5.9,300.0,99.0,'11111222,11111222,11144222' 
ADCP,ioos:station:wmo:42376:1,2012-08-01T07:20:00Z,29.1080,-87.9440,1.0,5.9,300.0,99.0,'11111222,11111222,11144222' 
ADCP,ioos:station:wmo:42376:1,2012-08-01T07:40:00Z,29.1080,-87.9440,1.0,6.3,305.0,99.0,'11111222,11111222,11144222' 
ADCP,ioos:station:wmo:42376:1,2012-08-01T08:00:00Z,29.1080,-87.9440,1.0,5.5,304.0,99.0,'11111222,11111222,11144222' 
ADCP,ioos:station:wmo:42376:1,2012-08-01T08:20:00Z,29.1080,-87.9440,1.0,5.5,304.0,99.0,'11111222,11111222,11144222' 
ADCP,ioos:station:wmo:42376:1,2012-08-01T08:40:00Z,29.1080,-87.9440,1.0,5.6,306.0,99.0,'11111222,11111222,11144222' 
ADCP,ioos:station:wmo:42376:1,2012-08-01T09:00:00Z,29.1080,-87.9440,1.0,6.4,311.0,99.0,'11111222,11111222,11144222' 
ADCP,ioos:station:wmo:42376:1,2012-08-01T09:20:00Z,29.1080,-87.9440,1.0,6.4,311.0,99.0,'11111222,11111222,11144222' 
ADCP,ioos:station:wmo:42376:1,2012-08-01T09:40:00Z,29.1080,-87.9440,1.0,6.9,313.0,99.0,'11111222,11111222,11144222' 
ADCP,ioos:station:wmo:42376:1,2012-08-01T10:00:00Z,29.1080,-87.9440,1.0,6.6,312.0,99.0,'11111222,11111222,11144222' 
ADCP,ioos:station:wmo:42376:1,2012-08-01T10:20:00Z,29.1080,-87.9440,1.0,6.6,312.0,99.0,'11111222,11111222,11144222' 
ADCP,ioos:station:wmo:42376:1,2012-08-01T10:40:00Z,29.1080,-87.9440,1.0,7.0,314.0,99.0,'11111222,11111222,11144222' 
ADCP,ioos:station:wmo:42376:1,2012-08-01T11:00:00Z,29.1080,-87.9440,1.0,6.9,319.0,99.0,'11111222,11111222,11144222' 
ADCP,ioos:station:wmo:42376:1,2012-08-01T11:20:00Z,29.1080,-87.9440,1.0,6.9,319.0,99.0,'11111222,11111222,11144222' 
ADCP,ioos:station:wmo:42376:1,2012-08-01T11:40:00Z,29.1080,-87.9440,1.0,6.8,317.0,99.0,'11111222,11111222,11144222' 
ADCP,ioos:station:wmo:42376:1,2012-08-01T12:00:00Z,29.1080,-87.9440,1.0,6.9,314.0,99.0,'11111222,11111222,11144222' 
ADCP,ioos:station:wmo:42376:1,2012-08-01T12:20:00Z,29.1080,-87.9440,1.0,6.9,314.0,99.0,'11111222,11111222,11144222' 
ADCP,ioos:station:wmo:42376:1,2012-08-01T12:40:00Z,29.1080,-87.9440,1.0,6.9,314.0,99.0,'11111222,11111222,11144222' 
ADCP,ioos:station:wmo:42376:1,2012-08-01T13:00:00Z,29.1080,-87.9440,1.0,11.3,305.0,99.0,'11111222,11111222,11144222' 
ADCP,ioos:station:wmo:42376:1,2012-08-01T13:20:00Z,29.1080,-87.9440,1.0,11.3,305.0,99.0,'11111222,11111222,11144222' 
ADCP,ioos:station:wmo:42376:1,2012-08-01T13:40:00Z,29.1080,-87.9440,1.0,11.2,33.0,99.0,'11111222,11111222,11144222' 
ADCP,ioos:station:wmo:42376:1,2012-08-01T14:00:00Z,29.1080,-87.9440,1.0,5.8,192.0,99.0,'11111222,11111222,11144222' 
ADCP,ioos:station:wmo:42376:1,2012-08-01T14:20:00Z,29.1080,-87.9440,1.0,5.8,192.0,99.0,'11111222,11111222,11144222' 
ADCP,ioos:station:wmo:42376:1,2012-08-01T14:40:00Z,29.1080,-87.9440,1.0,6.8,319.0,99.0,'11111222,11111222,11144222' 
ADCP,ioos:station:wmo:42376:1,2012-08-01T15:00:00Z,29.1080,-87.9440,1.0,8.4,321.0,99.0,'11111222,11111222,11144222' 
ADCP,ioos:station:wmo:42376:1,2012-08-01T15:20:00Z,29.1080,-87.9440,1.0,8.4,321.0,99.0,'11111222,11111222,11144222' 
ADCP,ioos:station:wmo:42376:1,2012-08-01T15:40:00Z,29.1080,-87.9440,1.0,11.4,325.0,99.0,'11111222,11111222,11144222' 
ADCP,ioos:station:wmo:42376:1,2012-08-01T16:00:00Z,29.1080,-87.9440,1.0,10.3,328.0,99.0,'11111222,11111222,11144222' 
ADCP,ioos:station:wmo:42376:1,2012-08-01T16:20:00Z,29.1080,-87.9440,1.0,10.3,328.0,99.0,'11111222,11111222,11144222' 
ADCP,ioos:station:wmo:42376:1,2012-08-01T16:40:00Z,29.1080,-87.9440,1.0,8.9,318.0,99.0,'11111222,11111222,11144222' 
ADCP,ioos:station:wmo:42376:1,2012-08-01T17:00:00Z,29.1080,-87.9440,1.0,6.8,325.0,99.0,'11111222,11111222,11144222' 
ADCP,ioos:station:wmo:42376:1,2012-08-01T17:20:00Z,29.1080,-87.9440,1.0,6.8,325.0,99.0,'11111222,11111222,11144222' 
ADCP,ioos:station:wmo:42376:1,2012-08-01T17:40:00Z,29.1080,-87.9440,1.0,7.4,319.0,99.0,'11111222,11111222,11144222' 
ADCP,ioos:station:wmo:42376:1,2012-08-01T18:00:00Z,29.1080,-87.9440,1.0,7.2,323.0,99.0,'11111222,11111222,11144222' 
ADCP,ioos:station:wmo:42376:1,2012-08-01T18:20:00Z,29.1080,-87.9440,1.0,7.2,323.0,99.0,'11111222,11111222,11144222' 
ADCP,ioos:station:wmo:42376:1,2012-08-01T18:40:00Z,29.1080,-87.9440,1.0,6.3,316.0,99.0,'11111222,11111222,11144222' 
ADCP,ioos:station:wmo:42376:1,2012-08-01T19:00:00Z,29.1080,-87.9440,1.0,6.3,319.0,99.0,'11111222,11111222,11144222' 
ADCP,ioos:station:wmo:42376:1,2012-08-01T19:20:00Z,29.1080,-87.9440,1.0,6.3,319.0,99.0,'11111222,11111222,11144222' 
ADCP,ioos:station:wmo:42376:1,2012-08-01T19:40:00Z,29.1080,-87.9440,1.0,6.8,317.0,99.0,'11111222,11111222,11144222' 
ADCP,ioos:station:wmo:42376:1,2012-08-01T20:00:00Z,29.1080,-87.9440,1.0,7.0,321.0,99.0,'11111222,11111222,11144222' 
ADCP,ioos:station:wmo:42376:1,2012-08-01T20:20:00Z,29.1080,-87.9440,1.0,7.0,321.0,99.0,'11111222,11111222,11144222' 
ADCP,ioos:station:wmo:42376:1,2012-08-01T20:40:00Z,29.1080,-87.9440,1.0,4.2,324.0,99.0,'11111222,11111222,11144222' 
ADCP,ioos:station:wmo:42376:1,2012-08-01T21:00:00Z,29.1080,-87.9440,1.0,3.2,319.0,99.0,'11111222,11111222,11144222' 
ADCP,ioos:station:wmo:42376:1,2012-08-01T21:20:00Z,29.1080,-87.9440,1.0,3.2,319.0,99.0,'11111222,11111222,11144222' 
ADCP,ioos:station:wmo:42376:1,2012-08-01T21:40:00Z,29.1080,-87.9440,1.0,3.1,318.0,99.0,'11111222,11111222,11144222' 
ADCP,ioos:station:wmo:42376:1,2012-08-01T22:00:00Z,29.1080,-87.9440,1.0,5.4,317.0,99.0,'11111222,11111222,11144222' 
ADCP,ioos:station:wmo:42376:1,2012-08-01T22:20:00Z,29.1080,-87.9440,1.0,5.4,317.0,99.0,'11111222,11111222,11144222' 
ADCP,ioos:station:wmo:42376:1,2012-08-01T22:40:00Z,29.1080,-87.9440,1.0,4.7,311.0,99.0,'11111222,11111222,11144222' 
ADCP,ioos:station:wmo:42376:1,2012-08-01T23:00:00Z,29.1080,-87.9440,1.0,4.9,313.0,99.0,'11111222,11111222,11144222' 
ADCP,ioos:station:wmo:42376:1,2012-08-01T23:20:00Z,29.1080,-87.9440,1.0,4.9,313.0,99.0,'11111222,11111222,11144222' 
ADCP,ioos:station:wmo:42376:1,2012-08-01T23:40:00Z,29.1080,-87.9440,1.0,4.1,302.0,99.0,'11111222,11111222,11144222' 
ADCP,ioos:station:wmo:42376:1,2012-08-02T00:00:00Z,29.1080,-87.9440,1.0,4.2,300.0,99.0,'11111222,11111222,11144222' 
ADCP,ioos:station:wmo:42376:1,2012-08-02T00:20:00Z,29.1080,-87.9440,1.0,4.2,300.0,99.0,'11111222,11111222,11144222' 
ADCP,ioos:station:wmo:42376:1,2012-08-02T00:40:00Z,29.1080,-87.9440,1.0,4.3,286.0,99.0,'11111222,11111222,11144222' 
ADCP,ioos:station:wmo:42376:1,2012-08-02T01:00:00Z,29.1080,-87.9440,1.0,4.1,283.0,99.0,'11111222,11111222,11144222' 
ADCP,ioos:station:wmo:42376:1,2012-08-02T01:20:00Z,29.1080,-87.9440,1.0,4.1,283.0,99.0,'11111222,11111222,11144222' 
ADCP,ioos:station:wmo:42376:1,2012-08-02T01:40:00Z,29.1080,-87.9440,1.0,4.3,278.0,99.0,'11111222,11111222,11144222' 
ADCP,ioos:station:wmo:42376:1,2012-08-02T02:00:00Z,29.1080,-87.9440,1.0,5.7,268.0,99.0,'11111222,11111222,11144222' 
ADCP,ioos:station:wmo:42376:1,2012-08-02T02:20:00Z,29.1080,-87.9440,1.0,5.7,268.0,99.0,'11111222,11111222,11144222' 
ADCP,ioos:station:wmo:42376:1,2012-08-02T02:40:00Z,29.1080,-87.9440,1.0,5.8,271.0,99.0,'11111222,11111222,11144222' 
ADCP,ioos:station:wmo:42376:1,2012-08-02T03:00:00Z,29.1080,-87.9440,1.0,6.2,269.0,99.0,'11111222,11111222,11144222' 
ADCP,ioos:station:wmo:42376:1,2012-08-02T03:20:00Z,29.1080,-87.9440,1.0,6.2,269.0,99.0,'11111222,11111222,11144222' 
ADCP,ioos:station:wmo:42376:1,2012-08-02T03:40:00Z,29.1080,-87.9440,1.0,6.7,271.0,99.0,'11111222,11111222,11144222' 
ADCP,ioos:station:wmo:42376:1,2012-08-02T04:00:00Z,29.1080,-87.9440,1.0,7.2,269.0,99.0,'11111222,11111222,11144222' 
ADCP,ioos:station:wmo:42376:1,2012-08-02T04:20:00Z,29.1080,-87.9440,1.0,7.2,269.0,99.0,'11111222,11111222,11144222' 
ADCP,ioos:station:wmo:42376:1,2012-08-02T04:40:00Z,29.1080,-87.9440,1.0,7.0,270.0,99.0,'11111222,11111222,11144222' 
ADCP,ioos:station:wmo:42376:1,2012-08-02T05:00:00Z,29.1080,-87.9440,1.0,6.1,275.0,99.0,'11111222,11111222,11144222' 
ADCP,ioos:station:wmo:42376:1,2012-08-02T05:20:00Z,29.1080,-87.9440,1.0,6.1,275.0,99.0,'11111222,11111222,11144222' 
ADCP,ioos:station:wmo:42376:1,2012-08-02T05:40:00Z,29.1080,-87.9440,1.0,6.4,274.0,99.0,'11111222,11111222,11144222' 
ADCP,ioos:station:wmo:42376:1,2012-08-02T06:00:00Z,29.1080,-87.9440,1.0,6.5,274.0,99.0,'11111222,11111222,11144222' 
ADCP,ioos:station:wmo:42376:1,2012-08-02T06:20:00Z,29.1080,-87.9440,1.0,6.5,274.0,99.0,'11111222,11111222,11144222' 
ADCP,ioos:station:wmo:42376:1,2012-08-02T06:40:00Z,29.1080,-87.9440,1.0,6.7,277.0,99.0,'11111222,11111222,11144222' 
ADCP,ioos:station:wmo:42376:1,2012-08-02T07:00:00Z,29.1080,-87.9440,1.0,4.5,291.0,99.0,'11111222,11111222,11144222' 
ADCP,ioos:station:wmo:42376:1,2012-08-02T07:20:00Z,29.1080,-87.9440,1.0,4.5,291.0,99.0,'11111222,11111222,11144222' 
ADCP,ioos:station:wmo:42376:1,2012-08-02T07:40:00Z,29.1080,-87.9440,1.0,4.5,300.0,99.0,'11111222,11111222,11144222' 
ADCP,ioos:station:wmo:42376:1,2012-08-02T08:00:00Z,29.1080,-87.9440,1.0,5.4,303.0,99.0,'11111222,11111222,11144222' 
ADCP,ioos:station:wmo:42376:1,2012-08-02T08:20:00Z,29.1080,-87.9440,1.0,5.4,303.0,99.0,'11111222,11111222,11144222' 
ADCP,ioos:station:wmo:42376:1,2012-08-02T08:40:00Z,29.1080,-87.9440,1.0,5.7,304.0,99.0,'11111222,11111222,11144222' 
ADCP,ioos:station:wmo:42376:1,2012-08-02T09:00:00Z,29.1080,-87.9440,1.0,5.7,305.0,99.0,'11111222,11111222,11144222' 
ADCP,ioos:station:wmo:42376:1,2012-08-02T09:20:00Z,29.1080,-87.9440,1.0,5.7,305.0,99.0,'11111222,11111222,11144222' 
ADCP,ioos:station:wmo:42376:1,2012-08-02T09:40:00Z,29.1080,-87.9440,1.0,5.9,308.0,99.0,'11111222,11111222,11144222' 
ADCP,ioos:station:wmo:42376:1,2012-08-02T10:00:00Z,29.1080,-87.9440,1.0,5.8,309.0,99.0,'11111222,11111222,11144222' 
ADCP,ioos:station:wmo:42376:1,2012-08-02T10:20:00Z,29.1080,-87.9440,1.0,5.8,309.0,99.0,'11111222,11111222,11144222' 
ADCP,ioos:station:wmo:42376:1,2012-08-02T10:40:00Z,29.1080,-87.9440,1.0,6.0,310.0,99.0,'11111222,11111222,11144222' 
ADCP,ioos:station:wmo:42376:1,2012-08-02T11:00:00Z,29.1080,-87.9440,1.0,6.3,311.0,99.0,'11111222,11111222,11144222' 
ADCP,ioos:station:wmo:42376:1,2012-08-02T11:20:00Z,29.1080,-87.9440,1.0,6.3,311.0,99.0,'11111222,11111222,11144222' 
ADCP,ioos:station:wmo:42376:1,2012-08-02T11:40:00Z,29.1080,-87.9440,1.0,5.8,312.0,99.0,'11111222,11111222,11144222' 
ADCP,ioos:station:wmo:42376:1,2012-08-02T12:00:00Z,29.1080,-87.9440,1.0,5.3,311.0,99.0,'11111222,11111222,11144222' 
ADCP,ioos:station:wmo:42376:1,2012-08-02T12:20:00Z,29.1080,-87.9440,1.0,5.3,311.0,99.0,'11111222,11111222,11144222' 
ADCP,ioos:station:wmo:42376:1,2012-08-02T12:40:00Z,29.1080,-87.9440,1.0,5.6,313.0,99.0,'11111222,11111222,11144222' 
ADCP,ioos:station:wmo:42376:1,2012-08-02T13:00:00Z,29.1080,-87.9440,1.0,6.4,308.0,99.0,'11111222,11111222,11144222' 
ADCP,ioos:station:wmo:42376:1,2012-08-02T13:20:00Z,29.1080,-87.9440,1.0,6.4,308.0,99.0,'11111222,11111222,11144222' 
ADCP,ioos:station:wmo:42376:1,2012-08-02T13:40:00Z,29.1080,-87.9440,1.0,9.3,300.0,99.0,'11111222,11111222,11144222' 
ADCP,ioos:station:wmo:42376:1,2012-08-02T14:00:00Z,29.1080,-87.9440,1.0,14.5,305.0,99.0,'11111222,11111222,11144222' 
ADCP,ioos:station:wmo:42376:1,2012-08-02T14:20:00Z,29.1080,-87.9440,1.0,14.5,305.0,99.0,'11111222,11111222,11144222' 
ADCP,ioos:station:wmo:42376:1,2012-08-02T14:40:00Z,29.1080,-87.9440,1.0,7.9,311.0,99.0,'11111222,11111222,11144222' 
ADCP,ioos:station:wmo:42376:1,2012-08-02T15:00:00Z,29.1080,-87.9440,1.0,4.9,319.0,99.0,'11111222,11111222,11144222' 
ADCP,ioos:station:wmo:42376:1,2012-08-02T15:20:00Z,29.1080,-87.9440,1.0,4.9,319.0,99.0,'11111222,11111222,11144222' 
ADCP,ioos:station:wmo:42376:1,2012-08-02T15:40:00Z,29.1080,-87.9440,1.0,9.3,329.0,99.0,'11111222,11111222,11144222' 
ADCP,ioos:station:wmo:42376:1,2012-08-02T16:00:00Z,29.1080,-87.9440,1.0,4.2,326.0,99.0,'11111222,11111222,11144222' 
ADCP,ioos:station:wmo:42376:1,2012-08-02T16:20:00Z,29.1080,-87.9440,1.0,4.2,326.0,99.0,'11111222,11111222,11144222' 
ADCP,ioos:station:wmo:42376:1,2012-08-02T16:40:00Z,29.1080,-87.9440,1.0,4.1,319.0,99.0,'11111222,11111222,11144222' 
ADCP,ioos:station:wmo:42376:1,2012-08-02T17:00:00Z,29.1080,-87.9440,1.0,2.5,311.0,99.0,'11111222,11111222,11144222' 
ADCP,ioos:station:wmo:42376:1,2012-08-02T17:20:00Z,29.1080,-87.9440,1.0,2.5,311.0,99.0,'11111222,11111222,11144222' 
ADCP,ioos:station:wmo:42376:1,2012-08-02T17:40:00Z,29.1080,-87.9440,1.0,3.0,283.0,99.0,'11111222,11111222,11144222' 
ADCP,ioos:station:wmo:42376:1,2012-08-02T18:00:00Z,29.1080,-87.9440,1.0,2.1,182.0,99.0,'11111222,11111222,11144222' 
ADCP,ioos:station:wmo:42376:1,2012-08-02T18:20:00Z,29.1080,-87.9440,1.0,2.1,182.0,99.0,'11111222,11111222,11144222' 
ADCP,ioos:station:wmo:42376:1,2012-08-02T18:40:00Z,29.1080,-87.9440,1.0,3.1,213.0,99.0,'11111222,11111222,11144222' 
ADCP,ioos:station:wmo:42376:1,2012-08-02T19:00:00Z,29.1080,-87.9440,1.0,1.7,272.0,99.0,'11111222,11111222,11144222' 
ADCP,ioos:station:wmo:42376:1,2012-08-02T19:20:00Z,29.1080,-87.9440,1.0,1.7,272.0,99.0,'11111222,11111222,11144222' 
ADCP,ioos:station:wmo:42376:1,2012-08-02T19:40:00Z,29.1080,-87.9440,1.0,3.7,135.0,99.0,'11111222,11111222,11144222' 
ADCP,ioos:station:wmo:42376:1,2012-08-02T20:00:00Z,29.1080,-87.9440,1.0,2.4,19.0,99.0,'11111222,11111222,11144222' 
ADCP,ioos:station:wmo:42376:1,2012-08-02T20:20:00Z,29.1080,-87.9440,1.0,2.4,19.0,99.0,'11111222,11111222,11144222' 
ADCP,ioos:station:wmo:42376:1,2012-08-02T20:40:00Z,29.1080,-87.9440,1.0,2.1,48.0,99.0,'11111222,11111222,11144222' 
ADCP,ioos:station:wmo:42376:1,2012-08-02T21:00:00Z,29.1080,-87.9440,1.0,2.8,87.0,99.0,'11111222,11111222,11144222' 
ADCP,ioos:station:wmo:42376:1,2012-08-02T21:20:00Z,29.1080,-87.9440,1.0,2.8,87.0,99.0,'11111222,11111222,11144222' 
ADCP,ioos:station:wmo:42376:1,2012-08-02T21:40:00Z,29.1080,-87.9440,1.0,2.4,33.0,99.0,'11111222,11111222,11144222' 
ADCP,ioos:station:wmo:42376:1,2012-08-02T22:00:00Z,29.1080,-87.9440,1.0,0.8,59.0,99.0,'11111222,11111222,11144222' 
ADCP,ioos:station:wmo:42376:1,2012-08-02T22:20:00Z,29.1080,-87.9440,1.0,0.8,59.0,99.0,'11111222,11111222,11144222' 
ADCP,ioos:station:wmo:42376:1,2012-08-02T22:40:00Z,29.1080,-87.9440,1.0,0.0,327.0,99.0,'11111222,11111222,11144222' 
ADCP,ioos:station:wmo:42376:1,2012-08-02T23:00:00Z,29.1080,-87.9440,1.0,0.0,327.0,99.0,'11111222,11111222,11144222' 
ADCP,ioos:station:wmo:42376:1,2012-08-02T23:20:00Z,29.1080,-87.9440,1.0,0.0,327.0,99.0,'11111222,11111222,11144222' 
ADCP,ioos:station:wmo:42376:1,2012-08-02T23:40:00Z,29.1080,-87.9440,1.0,0.8,282.0,99.0,'11111222,11111222,11144222' 
ADCP,ioos:station:wmo:42376:1,2012-08-03T00:00:00Z,29.1080,-87.9440,1.0,1.9,248.0,99.0,'11111222,11111222,11144222' 
ADCP,ioos:station:wmo:42376:1,2012-08-03T00:20:00Z,29.1080,-87.9440,1.0,1.9,248.0,99.0,'11111222,11111222,11144222' 
ADCP,ioos:station:wmo:42376:1,2012-08-03T00:40:00Z,29.1080,-87.9440,1.0,3.8,250.0,99.0,'11111222,11111222,11144222' 
ADCP,ioos:station:wmo:42376:1,2012-08-03T01:00:00Z,29.1080,-87.9440,1.0,3.2,248.0,99.0,'11111222,11111222,11144222' 
ADCP,ioos:station:wmo:42376:1,2012-08-03T01:20:00Z,29.1080,-87.9440,1.0,3.2,248.0,99.0,'11111222,11111222,11144222' 
ADCP,ioos:station:wmo:42376:1,2012-08-03T01:40:00Z,29.1080,-87.9440,1.0,3.2,242.0,99.0,'11111222,11111222,11144222' 
ADCP,ioos:station:wmo:42376:1,2012-08-03T02:00:00Z,29.1080,-87.9440,1.0,4.2,234.0,99.0,'11111222,11111222,11144222' 
ADCP,ioos:station:wmo:42376:1,2012-08-03T02:20:00Z,29.1080,-87.9440,1.0,4.2,234.0,99.0,'11111222,11111222,11144222' 
ADCP,ioos:station:wmo:42376:1,2012-08-03T02:40:00Z,29.1080,-87.9440,1.0,4.4,227.0,99.0,'11111222,11111222,11144222' 
ADCP,ioos:station:wmo:42376:1,2012-08-03T03:00:00Z,29.1080,-87.9440,1.0,4.9,222.0,99.0,'11111222,11111222,11144222' 
ADCP,ioos:station:wmo:42376:1,2012-08-03T03:20:00Z,29.1080,-87.9440,1.0,4.9,222.0,99.0,'11111222,11111222,11144222' 
ADCP,ioos:station:wmo:42376:1,2012-08-03T03:40:00Z,29.1080,-87.9440,1.0,5.2,227.0,99.0,'11111222,11111222,11144222' 
ADCP,ioos:station:wmo:42376:1,2012-08-03T04:00:00Z,29.1080,-87.9440,1.0,4.2,219.0,99.0,'11111222,11111222,11144222' 
ADCP,ioos:station:wmo:42376:1,2012-08-03T04:20:00Z,29.1080,-87.9440,1.0,4.2,219.0,99.0,'11111222,11111222,11144222' 
ADCP,ioos:station:wmo:42376:1,2012-08-03T04:40:00Z,29.1080,-87.9440,1.0,4.5,212.0,99.0,'11111222,11111222,11144222' 
ADCP,ioos:station:wmo:42376:1,2012-08-03T05:00:00Z,29.1080,-87.9440,1.0,4.6,224.0,99.0,'11111222,11111222,11144222' 
ADCP,ioos:station:wmo:42376:1,2012-08-03T05:20:00Z,29.1080,-87.9440,1.0,4.6,224.0,99.0,'11111222,11111222,11144222' 
ADCP,ioos:station:wmo:42376:1,2012-08-03T05:40:00Z,29.1080,-87.9440,1.0,5.0,234.0,99.0,'11111222,11111222,11144222' 
ADCP,ioos:station:wmo:42376:1,2012-08-03T06:00:00Z,29.1080,-87.9440,1.0,4.6,238.0,99.0,'11111222,11111222,11144222' 
ADCP,ioos:station:wmo:42376:1,2012-08-03T06:20:00Z,29.1080,-87.9440,1.0,4.6,238.0,99.0,'11111222,11111222,11144222' 
ADCP,ioos:station:wmo:42376:1,2012-08-03T06:40:00Z,29.1080,-87.9440,1.0,5.5,248.0,99.0,'11111222,11111222,11144222' 
ADCP,ioos:station:wmo:42376:1,2012-08-03T07:00:00Z,29.1080,-87.9440,1.0,5.4,254.0,99.0,'11111222,11111222,11144222' 
ADCP,ioos:station:wmo:42376:1,2012-08-03T07:20:00Z,29.1080,-87.9440,1.0,5.4,254.0,99.0,'11111222,11111222,11144222' 
ADCP,ioos:station:wmo:42376:1,2012-08-03T07:40:00Z,29.1080,-87.9440,1.0,6.8,257.0,99.0,'11111222,11111222,11144222' 
ADCP,ioos:station:wmo:42376:1,2012-08-03T08:00:00Z,29.1080,-87.9440,1.0,5.6,252.0,99.0,'11111222,11111222,11144222' 
ADCP,ioos:station:wmo:42376:1,2012-08-03T08:20:00Z,29.1080,-87.9440,1.0,5.6,252.0,99.0,'11111222,11111222,11144222' 
ADCP,ioos:station:wmo:42376:1,2012-08-03T08:40:00Z,29.1080,-87.9440,1.0,5.6,255.0,99.0,'11111222,11111222,11144222' 
ADCP,ioos:station:wmo:42376:1,2012-08-03T09:00:00Z,29.1080,-87.9440,1.0,6.0,261.0,99.0,'11111222,11111222,11144222' 
ADCP,ioos:station:wmo:42376:1,2012-08-03T09:20:00Z,29.1080,-87.9440,1.0,6.0,261.0,99.0,'11111222,11111222,11144222' 
ADCP,ioos:station:wmo:42376:1,2012-08-03T09:40:00Z,29.1080,-87.9440,1.0,5.7,265.0,99.0,'11111222,11111222,11144222' 
ADCP,ioos:station:wmo:42376:1,2012-08-03T10:00:00Z,29.1080,-87.9440,1.0,5.4,268.0,99.0,'11111222,11111222,11144222' 
ADCP,ioos:station:wmo:42376:1,2012-08-03T10:20:00Z,29.1080,-87.9440,1.0,5.4,268.0,99.0,'11111222,11111222,11144222' 
ADCP,ioos:station:wmo:42376:1,2012-08-03T10:40:00Z,29.1080,-87.9440,1.0,5.0,265.0,99.0,'11111222,11111222,11144222' 
ADCP,ioos:station:wmo:42376:1,2012-08-03T11:00:00Z,29.1080,-87.9440,1.0,4.4,259.0,99.0,'11111222,11111222,11144222' 
ADCP,ioos:station:wmo:42376:1,2012-08-03T11:20:00Z,29.1080,-87.9440,1.0,4.4,259.0,99.0,'11111222,11111222,11144222' 
ADCP,ioos:station:wmo:42376:1,2012-08-03T11:40:00Z,29.1080,-87.9440,1.0,4.6,265.0,99.0,'11111222,11111222,11144222' 
ADCP,ioos:station:wmo:42376:1,2012-08-03T12:00:00Z,29.1080,-87.9440,1.0,4.7,266.0,99.0,'11111222,11111222,11144222' 
ADCP,ioos:station:wmo:42376:1,2012-08-03T12:20:00Z,29.1080,-87.9440,1.0,4.7,266.0,99.0,'11111222,11111222,11144222' 
ADCP,ioos:station:wmo:42376:1,2012-08-03T12:40:00Z,29.1080,-87.9440,1.0,4.8,267.0,99.0,'11111222,11111222,11144222' 
ADCP,ioos:station:wmo:42376:1,2012-08-03T13:00:00Z,29.1080,-87.9440,1.0,4.3,268.0,99.0,'11111222,11111222,11144222' 
ADCP,ioos:station:wmo:42376:1,2012-08-03T13:20:00Z,29.1080,-87.9440,1.0,4.3,268.0,99.0,'11111222,11111222,11144222' 
ADCP,ioos:station:wmo:42376:1,2012-08-03T13:40:00Z,29.1080,-87.9440,1.0,3.7,275.0,99.0,'11111222,11111222,11144222' 
ADCP,ioos:station:wmo:42376:1,2012-08-03T14:00:00Z,29.1080,-87.9440,1.0,2.5,296.0,99.0,'11111222,11111222,11144222' 
ADCP,ioos:station:wmo:42376:1,2012-08-03T14:20:00Z,29.1080,-87.9440,1.0,2.5,296.0,99.0,'11111222,11111222,11144222' 
ADCP,ioos:station:wmo:42376:1,2012-08-03T14:40:00Z,29.1080,-87.9440,1.0,2.5,298.0,99.0,'11111222,11111222,11144222' 
ADCP,ioos:station:wmo:42376:1,2012-08-03T15:00:00Z,29.1080,-87.9440,1.0,2.5,287.0,99.0,'11111222,11111222,11144222' 
ADCP,ioos:station:wmo:42376:1,2012-08-03T15:20:00Z,29.1080,-87.9440,1.0,2.5,287.0,99.0,'11111222,11111222,11144222' 
ADCP,ioos:station:wmo:42376:1,2012-08-03T15:40:00Z,29.1080,-87.9440,1.0,2.3,298.0,99.0,'11111222,11111222,11144222' 
ADCP,ioos:station:wmo:42376:1,2012-08-03T16:00:00Z,29.1080,-87.9440,1.0,1.2,270.0,99.0,'11111222,11111222,11144222' 
ADCP,ioos:station:wmo:42376:1,2012-08-03T16:20:00Z,29.1080,-87.9440,1.0,1.2,270.0,99.0,'11111222,11111222,11144222' 
ADCP,ioos:station:wmo:42376:1,2012-08-03T16:40:00Z,29.1080,-87.9440,1.0,1.6,278.0,99.0,'11111222,11111222,11144222' 
ADCP,ioos:station:wmo:42376:1,2012-08-03T17:00:00Z,29.1080,-87.9440,1.0,1.1,224.0,99.0,'11111222,11111222,11144222' 
ADCP,ioos:station:wmo:42376:1,2012-08-03T17:20:00Z,29.1080,-87.9440,1.0,1.1,224.0,99.0,'11111222,11111222,11144222' 
ADCP,ioos:station:wmo:42376:1,2012-08-03T17:40:00Z,29.1080,-87.9440,1.0,2.2,286.0,99.0,'11111222,11111222,11144222' 
ADCP,ioos:station:wmo:42376:1,2012-08-03T18:00:00Z,29.1080,-87.9440,1.0,2.3,290.0,99.0,'11111222,11111222,11144222' 
ADCP,ioos:station:wmo:42376:1,2012-08-03T18:20:00Z,29.1080,-87.9440,1.0,2.3,290.0,99.0,'11111222,11111222,11144222' 
ADCP,ioos:station:wmo:42376:1,2012-08-03T18:40:00Z,29.1080,-87.9440,1.0,2.2,286.0,99.0,'11111222,11111222,11144222' 
ADCP,ioos:station:wmo:42376:1,2012-08-03T19:00:00Z,29.1080,-87.9440,1.0,2.3,264.0,99.0,'11111222,11111222,11144222' 
ADCP,ioos:station:wmo:42376:1,2012-08-03T21:20:00Z,29.1080,-87.9440,1.0,2.7,276.0,99.0,'11111222,11111222,11144222' 
ADCP,ioos:station:wmo:42376:1,2012-08-03T21:40:00Z,29.1080,-87.9440,1.0,1.8,299.0,99.0,'11111222,11111222,11144222' 